Flag for Finland Weather past 2 weeks in Pori, Finland

Now
79 °F

Passing clouds.


Feels Like: 79 °F
Forecast: 62 / 84 °F
Wind: 13 mph from Northwest

Location: Pori Airport

Current Time: Jul 23, 2014 at 5:12:35 PM

Latest Report: Jul 23, 2014 at 4:20 PM


Visibility: N/A

Pressure: 30.24 "Hg

Humidity: 42%

Dew point: 54 °F

Location of PoriLocation

Historic Weather in Pori — Graph

°F

Pori temperature yesterday

Maximum temperature yesterday: 81 °F (at 3:20 PM)
Minimum temperature yesterday: 55 °F (at 3:50 AM)
Average temperature yesterday: 70 °F

Past Weeks' High & Low Weather Summary

 TemperatureHumidityPressure
High84 °F (Jul 8, 3:50 PM)100% (Jul 12, 4:20 AM)30.27 "Hg (Jul 12, 4:20 AM)
Low50 °F (Jul 12, 4:20 AM)24% (Jul 11, 5:20 PM)29.80 "Hg (Jul 13, 11:50 PM)
Average67 °F69%30.06 "Hg
* Reported Jul 8 2:20 PM — Jul 23 2:20 PM, Pori, Weather by CustomWeather, © 2014

Note: Actual official high and low records may vary slightly from our data, if they occured in-between our weather recording intervals... More about our weather records

Advertising

Pori weather history for previous 24 hours

 ConditionsComfort  
Time TempWeatherWind HumidityBarometerVisibility
2:20 PM
Jul 23
79 °FSunny.14 mph39%30.24 "Hg10 mi
1:50 PM79 °FSunny.14 mph39%30.24 "Hg10 mi
1:20 PM79 °FPassing clouds.12 mph39%30.24 "HgN/A
8:20 AM70 °FSunny.1 mph60%30.27 "Hg10 mi
7:50 AM68 °FSunny.No wind69%30.27 "Hg10 mi
7:20 AM63 °FSunny.1 mph88%30.27 "Hg10 mi
6:50 AM59 °FSunny.1 mph88%30.27 "Hg10 mi
6:20 AM57 °FSunny.1 mph88%30.27 "Hg10 mi
5:50 AM55 °FSunny.1 mph94%30.27 "Hg10 mi
5:20 AM55 °FClear.1 mph94%30.27 "Hg10 mi
4:50 AM55 °FClear.1 mph94%30.27 "Hg10 mi
4:20 AM55 °FClear.1 mph94%30.27 "Hg10 mi
3:50 AM57 °FClear.No wind94%30.27 "Hg10 mi
3:20 AM57 °FClear.No wind94%30.27 "Hg10 mi
2:50 AM57 °FClear.No wind94%30.27 "Hg10 mi
7:50 PM
Jul 22
77 °FPassing clouds.12 mph44%30.24 "HgN/A
7:20 PM77 °FSunny.12 mph44%30.24 "Hg10 mi
6:50 PM77 °FSunny.9 mph51%30.24 "Hg10 mi
6:20 PM77 °FSunny.12 mph47%30.24 "Hg10 mi
5:50 PM79 °FSunny.12 mph48%30.24 "Hg10 mi
5:20 PM79 °FPassing clouds.12 mph45%30.24 "HgN/A
Weather by CustomWeather, © 2014

See weather overviewHow to use our weather pages